Theta_e
351 351 349 344 339 344 344 347 347 347 346 345 346 344 344 341 337 332 332 337 342 342 338 333 330 330 329 334 334 328 331 336 338 341 340 338 338 340 343 343 344 344 344 344 344 344 343 342 342 342 342 342 341 340 339 338 338 339 339 339 339 339 338 338 337 337 337 338 339 339 339 340 341 341 341 341 341 341 341 341 341 341 341 341 341
351 349 349 344 339 342 343 347 346 347 346 346 346 344 343 339 334 332 336 340 342 338 334 330 330 331 332 339 336 332 337 341 341 340 341 342 342 344 344 344 345 344 344 344 344 344 343 343 342 343 343 342 341 341 340 339 339 339 339 338 338 337 337 336 336 336 336 336 337 338 339 339 340 341 341 341 341 340 340 341 341 341 341 341 340
350 349 350 345 340 341 343 346 346 347 346 346 345 344 341 336 334 335 339 340 339 335 331 331 332 333 336 340 336 335 341 342 341 340 342 343 344 345 345 345 345 344 345 344 344 343 342 343 342 342 341 339 336 335 335 336 339 338 338 338 337 336 336 335 335 335 335 335 337 338 339 339 340 341 341 341 340 339 340 340 340 340 340 340 340
349 348 348 345 341 342 343 345 345 346 346 346 344 342 338 335 337 338 339 338 337 332 329 328 329 332 338 339 335 338 341 340 340 340 341 342 344 345 345 345 345 345 345 344 343 343 342 342 341 339 335 332 328 327 326 327 331 333 335 336 335 335 334 334 334 334 334 335 336 337 338 338 339 340 341 341 340 339 340 340 340 340 339 339 339
348 346 346 346 344 344 343 344 345 344 344 344 342 340 337 337 338 338 339 337 333 329 326 324 327 333 338 338 337 339 339 339 339 340 341 341 344 345 345 345 345 345 345 344 344 343 343 341 338 334 329 326 326 327 326 323 326 330 333 335 335 334 334 332 331 332 333 334 335 335 335 335 337 338 339 340 340 340 340 340 339 339 339 338 338
347 346 345 345 346 345 342 343 343 343 343 343 342 340 338 339 338 338 338 334 331 327 324 325 331 335 338 338 338 339 338 339 340 341 341 341 344 345 345 345 345 345 345 345 344 343 342 340 334 330 327 325 328 329 328 325 324 328 333 334 333 333 333 329 327 330 332 333 335 333 333 333 334 336 338 339 340 340 340 340 339 339 339 338 338
347 346 345 344 346 346 342 341 341 342 342 341 341 340 339 339 338 338 335 332 328 323 323 329 335 336 338 338 338 338 338 340 341 342 342 343 345 345 345 345 345 345 345 344 344 343 342 340 335 333 332 330 330 330 330 326 323 326 330 330 329 330 330 326 325 330 333 334 334 332 333 333 333 334 336 337 337 338 339 339 339 339 339 338 338
347 345 345 343 346 345 341 340 340 340 340 340 340 339 339 339 337 335 333 330 324 321 326 334 337 338 338 338 338 338 339 341 342 343 343 344 345 345 345 345 345 344 344 344 343 342 340 336 334 335 336 335 332 331 331 328 324 323 325 327 325 323 322 322 327 330 331 332 330 330 331 332 332 333 336 337 337 337 337 337 338 338 338 337 338
346 345 345 344 346 345 341 339 340 339 339 340 339 339 338 337 334 331 331 326 320 321 328 335 338 339 338 337 338 338 340 342 342 343 343 344 344 345 344 344 344 343 343 342 342 339 336 332 333 336 337 337 334 331 330 329 325 322 321 322 320 318 320 323 329 331 331 331 332 332 331 331 332 333 335 337 336 336 336 336 337 337 337 337 337
346 345 345 345 345 342 339 338 339 339 339 339 339 338 335 333 330 329 329 326 323 326 329 335 339 338 338 338 339 339 341 342 342 342 343 343 343 344 344 343 343 343 342 342 340 335 332 331 334 336 336 335 332 330 330 329 325 321 318 318 320 323 328 330 331 331 331 331 332 333 333 333 332 333 335 336 335 335 335 334 335 334 335 335 336
346 346 345 346 342 338 336 337 338 338 337 338 337 334 331 329 327 327 328 327 330 334 334 338 340 337 338 339 339 339 341 342 342 342 343 343 343 343 343 343 342 342 342 339 336 331 331 331 332 333 333 331 330 330 330 328 323 320 320 323 328 331 332 333 334 331 330 331 331 331 332 333 332 332 334 335 335 335 335 335 335 334 333 334 333
347 347 347 345 339 334 334 335 335 335 335 334 332 329 328 326 326 327 326 327 332 336 336 337 338 337 339 339 339 339 340 342 342 342 343 342 342 342 342 342 341 341 339 335 331 330 331 331 331 331 331 330 331 331 330 328 322 322 328 331 332 332 332 333 334 333 332 332 331 332 333 332 332 332 332 334 335 335 336 335 335 335 334 333 333
348 348 347 343 338 334 332 332 332 331 330 329 327 325 325 325 327 327 327 331 336 337 336 336 335 337 338 339 339 339 340 341 341 342 342 341 342 341 341 340 340 340 336 331 329 330 331 331 331 331 331 330 329 328 328 326 322 325 331 332 333 333 333 333 333 333 334 333 332 334 333 332 332 331 332 333 333 334 335 335 335 335 334 333 333
348 349 346 343 341 335 331 331 330 328 327 326 325 324 324 326 327 326 329 335 338 339 338 336 334 335 338 339 339 339 340 340 340 341 341 341 340 340 340 339 339 337 332 329 329 331 332 332 331 331 331 329 327 325 325 324 321 326 332 332 333 333 334 335 334 334 334 334 334 334 333 333 332 332 332 332 332 333 334 334 334 333 333 332 332
349 348 345 344 343 338 333 331 330 329 328 326 324 324 325 328 329 328 331 336 338 337 338 337 336 335 336 339 339 339 339 339 339 340 340 340 339 339 339 339 338 335 330 329 330 331 332 332 331 331 331 328 326 323 323 322 320 326 332 332 333 333 335 336 334 334 334 334 334 334 334 332 331 331 331 332 331 331 333 333 333 332 332 332 332
349 347 345 345 343 341 337 334 332 330 329 326 325 325 324 329 332 332 331 334 336 336 336 338 338 336 336 337 338 339 339 339 339 339 339 339 339 339 338 338 337 333 329 329 330 331 332 332 331 332 331 328 326 322 321 320 320 326 332 332 333 334 335 336 333 333 334 334 334 334 333 331 330 331 331 332 332 331 331 332 332 332 332 331 331
350 347 346 345 344 343 341 339 335 331 331 328 326 326 325 329 334 334 331 331 332 333 336 338 339 338 336 336 337 338 338 339 338 338 339 338 339 338 337 337 335 332 329 330 330 332 333 332 332 332 331 329 326 322 320 320 320 326 331 332 334 334 335 335 335 334 335 335 334 333 331 330 329 331 331 332 331 331 330 331 331 331 331 330 331
350 348 346 345 345 343 343 342 338 336 337 334 332 329 328 331 333 334 333 331 330 333 337 339 338 338 337 336 336 336 337 338 337 338 338 338 338 337 337 337 335 331 330 330 329 331 332 332 332 332 332 330 326 322 319 319 319 324 330 333 333 334 334 335 334 335 335 334 334 333 331 330 331 332 332 332 331 331 332 331 331 331 331 330 330
349 348 347 345 345 344 344 342 340 341 340 339 338 335 331 331 332 334 335 333 332 335 338 339 339 338 337 335 335 335 336 337 337 338 338 339 338 337 338 337 335 331 330 330 329 331 333 333 332 332 332 330 328 323 319 318 318 323 330 333 334 334 335 335 334 335 335 334 333 333 332 332 333 334 334 333 332 332 332 332 331 330 330 330 330
349 348 347 346 346 345 345 343 342 342 341 341 341 340 336 333 333 335 338 335 334 337 339 338 338 338 337 334 334 335 336 336 337 338 338 337 337 337 338 337 335 332 331 330 329 330 333 333 332 332 332 331 329 324 320 318 318 325 333 335 335 337 336 335 334 334 335 334 334 333 332 333 333 334 334 333 332 331 331 331 330 330 329 329 329
349 348 348 348 347 346 346 343 344 343 342 342 341 342 338 335 336 336 338 336 335 337 337 337 338 338 336 333 334 337 338 337 336 337 336 335 334 335 337 336 336 333 331 331 328 330 333 334 333 333 332 331 329 325 322 320 323 330 335 336 336 337 337 336 335 334 335 334 334 332 331 332 333 333 332 332 331 331 331 330 329 329 329 328 328
349 349 348 348 347 346 346 344 344 344 343 343 342 342 339 338 339 338 338 337 336 336 337 338 338 338 336 334 337 340 340 338 338 337 336 335 333 331 333 335 335 332 331 331 328 330 333 334 334 333 332 331 330 329 325 324 329 334 335 336 337 337 337 337 335 335 335 334 332 331 330 331 331 330 330 330 330 329 328 328 328 328 328 327 327
350 349 348 348 348 346 344 343 344 344 344 343 343 342 340 340 341 340 339 338 338 338 339 339 339 339 337 337 339 340 340 339 339 338 337 337 333 328 328 331 333 330 330 330 327 329 332 334 334 333 332 332 335 335 331 329 331 335 336 337 338 336 336 336 335 335 335 333 331 329 329 330 329 329 329 329 329 328 327 327 327 327 326 326 326
350 349 348 346 346 345 342 343 345 344 343 343 343 342 340 341 341 341 340 340 340 340 340 340 340 340 339 339 341 341 341 341 340 340 338 337 335 330 327 328 330 328 328 329 327 328 331 334 334 333 333 334 338 337 336 334 332 335 337 337 337 335 336 336 335 335 333 333 330 329 330 329 329 330 329 329 328 328 327 327 327 327 326 325 326
349 348 344 342 343 342 341 342 343 342 343 341 341 341 341 342 340 341 341 341 340 341 341 341 341 341 340 341 342 341 341 343 342 341 339 338 337 334 331 331 332 331 328 329 331 329 332 336 335 333 334 336 338 336 336 336 334 336 337 336 336 335 335 334 334 334 333 332 330 329 330 329 329 330 329 328 327 327 327 326 326 326 325 325 325
348 343 340 341 342 342 341 341 341 341 343 341 340 341 341 341 340 341 342 342 342 341 341 341 341 341 341 341 341 339 340 343 343 341 339 339 338 337 336 335 335 334 329 332 335 332 334 338 337 336 336 337 337 337 337 336 335 336 335 336 336 335 334 333 333 333 333 332 329 329 329 329 329 329 329 328 326 326 326 326 326 325 324 324 324
346 341 340 342 343 343 342 341 342 342 343 342 342 342 342 341 340 341 342 342 342 341 341 341 341 341 341 341 340 339 338 339 341 341 339 339 338 337 337 336 337 336 331 333 336 334 335 337 338 338 337 337 336 337 337 335 334 334 335 336 335 335 334 333 333 332 333 332 329 328 328 329 329 329 328 328 327 326 327 326 326 326 325 324 324
344 342 341 342 342 343 343 342 343 343 343 343 342 342 342 341 341 342 342 341 342 341 341 340 340 341 342 342 341 340 338 337 339 341 340 339 339 337 336 337 337 336 332 333 336 335 335 335 336 337 336 336 337 337 336 334 334 333 334 335 335 334 334 333 332 332 333 332 330 328 328 329 329 329 328 328 328 328 328 328 327 326 325 325 325
344 343 342 343 342 343 344 343 343 342 343 343 343 343 343 343 342 343 342 341 341 341 340 340 340 341 342 342 341 341 339 336 337 339 339 339 339 339 338 336 336 336 334 334 336 335 335 335 336 337 336 335 336 336 335 334 334 333 333 334 336 335 334 334 332 333 332 333 332 328 327 328 329 328 328 328 329 329 328 327 326 325 324 325 325
345 344 342 343 344 344 344 343 343 343 343 343 344 344 343 343 342 342 342 341 341 341 340 340 340 340 341 341 341 341 340 339 337 337 338 338 339 340 340 338 336 336 334 334 334 335 336 335 336 337 337 335 336 336 334 333 333 333 333 334 335 334 334 334 333 334 334 335 334 328 326 328 328 327 327 329 330 330 328 326 325 325 325 325 324
346 345 344 343 345 345 344 344 344 344 344 343 343 344 343 342 342 342 342 342 341 341 341 342 340 340 340 340 341 340 340 340 339 337 337 338 339 340 340 339 338 337 336 334 333 334 335 335 336 337 337 336 336 336 334 333 332 333 333 334 334 334 334 334 334 334 334 335 334 330 327 326 326 327 328 330 330 328 327 326 326 326 325 325 324
346 346 346 345 345 345 343 343 344 344 344 344 344 344 344 343 343 343 342 341 342 341 342 342 341 340 339 340 340 339 340 339 339 339 337 338 339 339 339 338 338 337 336 335 333 335 335 335 336 336 336 335 335 336 335 333 333 333 333 334 334 333 334 334 334 334 334 334 334 332 329 326 326 327 329 329 328 327 327 328 328 327 325 324 324
346 346 346 345 345 345 345 345 345 345 345 345 345 345 345 344 344 344 343 342 342 342 341 341 341 340 339 341 340 339 339 339 339 339 338 338 338 339 338 338 337 336 335 335 334 335 335 334 335 336 336 336 336 336 336 334 334 333 333 334 333 333 334 334 334 334 334 334 333 332 331 329 328 328 329 328 326 326 327 328 328 327 326 324 324
345 344 344 344 344 344 345 345 346 346 346 345 345 345 345 345 345 345 344 343 342 341 341 341 341 340 340 341 340 339 339 339 339 338 338 338 337 338 337 336 337 336 335 335 335 334 334 333 334 335 335 336 337 337 337 335 335 334 334 334 333 334 335 335 335 335 335 334 333 333 332 332 331 329 328 326 324 325 327 328 327 326 325 325 324
344 344 344 344 343 344 344 344 345 344 344 344 344 345 346 346 344 343 342 342 342 340 341 341 341 341 340 340 340 340 340 339 339 338 337 336 336 337 337 335 336 336 335 335 335 334 333 333 334 335 335 335 336 337 337 336 335 335 335 334 334 335 335 336 336 335 335 334 334 334 333 332 332 331 329 326 324 325 326 327 326 326 325 325 325
344 344 343 343 343 344 343 343 343 343 342 342 343 343 344 345 344 343 342 341 340 339 339 339 339 338 338 339 339 339 339 338 339 339 337 336 335 336 336 333 332 335 336 335 336 334 333 334 333 333 334 334 334 335 337 336 336 336 335 335 334 336 336 335 336 335 335 334 334 335 334 333 332 331 330 329 328 325 324 324 324 324 325 324 325
344 343 343 343 343 343 343 343 343 343 342 342 342 341 342 343 342 342 341 340 339 339 339 338 337 336 337 339 338 338 338 338 339 338 337 336 335 336 335 332 330 332 335 336 336 334 333 333 332 332 333 333 332 333 335 336 336 335 335 334 334 335 335 335 335 335 335 334 334 334 334 333 331 330 330 330 329 325 322 321 321 322 324 324 324
345 343 343 343 343 342 342 342 342 343 342 342 342 341 342 341 341 341 340 340 339 339 338 338 337 337 337 338 338 338 338 338 339 339 338 337 336 335 335 334 332 331 332 335 336 335 334 333 333 333 332 332 331 332 335 336 336 335 335 334 334 335 335 336 335 335 335 335 334 334 334 333 331 330 330 330 330 327 324 322 322 322 323 324 324
345 344 344 343 342 342 342 342 341 342 342 342 341 341 341 340 341 341 340 340 340 339 338 337 337 337 338 338 337 337 337 337 338 338 339 338 336 335 335 336 334 332 332 333 335 335 335 333 333 334 333 332 332 333 335 336 336 335 335 334 335 336 336 336 335 335 335 335 335 334 333 333 332 330 331 331 330 330 328 326 325 325 324 323 323
345 344 344 343 342 342 342 341 341 342 341 341 341 340 340 340 340 340 340 341 340 339 339 338 337 337 338 337 337 337 336 337 337 338 339 338 337 336 335 336 336 334 332 332 334 334 334 334 334 334 334 334 334 335 335 335 335 336 336 336 336 337 336 336 335 335 335 335 334 333 333 333 332 331 331 332 331 331 330 329 329 329 327 325 323
345 345 344 343 342 341 341 341 341 342 341 341 340 340 340 339 339 339 340 340 340 340 339 339 338 337 337 337 337 336 336 336 337 337 338 338 338 337 336 335 336 336 334 333 334 333 333 334 334 334 334 334 333 335 336 335 334 336 337 337 337 337 336 336 335 335 335 334 334 333 333 333 332 331 331 332 332 331 330 330 331 330 329 327 325
346 345 344 343 342 342 341 341 340 340 340 340 340 340 340 340 340 339 339 339 340 340 339 339 338 337 337 337 336 336 336 337 337 337 338 338 338 338 336 336 336 336 335 335 334 333 332 333 334 334 334 333 331 333 336 335 334 336 337 336 336 336 336 335 334 334 334 333 333 333 333 333 333 332 331 332 332 332 331 331 330 330 331 330 328
346 344 343 342 341 341 341 341 340 339 340 339 339 340 340 339 339 339 339 339 338 338 338 339 338 338 338 337 337 337 337 337 336 336 337 337 337 336 336 336 336 335 335 335 335 334 333 334 335 334 333 333 331 332 335 334 333 334 335 334 335 335 335 334 334 334 333 332 332 333 332 333 333 332 332 332 332 332 331 330 330 330 332 331 330
344 342 342 340 340 340 340 340 340 339 339 339 339 339 339 339 338 338 338 338 338 338 338 338 339 338 338 338 337 336 335 335 335 335 336 336 336 335 336 337 336 335 335 336 336 336 334 333 334 334 334 332 331 332 334 334 334 334 333 333 333 334 334 334 334 334 333 332 332 332 332 332 334 333 332 332 331 331 330 330 331 331 331 330 330
343 341 341 340 340 340 340 340 340 339 339 339 339 338 338 338 338 338 337 338 338 338 338 338 339 338 338 339 337 334 335 335 335 335 335 336 336 335 337 337 336 335 335 336 336 336 335 333 333 333 333 332 331 332 332 332 334 334 333 334 334 333 333 333 334 333 332 333 333 332 332 333 334 333 332 332 332 331 331 331 332 331 331 330 330
341 340 340 340 340 340 340 340 340 340 339 339 339 338 338 338 338 338 338 339 339 338 339 338 338 338 338 339 337 336 336 335 335 335 335 336 336 336 337 336 336 335 335 336 336 335 336 334 333 333 333 332 331 332 333 333 335 335 332 333 334 333 333 334 334 332 332 334 334 332 332 334 334 332 332 333 332 331 331 332 332 331 331 330 329
339 339 339 340 340 340 340 339 339 339 339 339 339 338 338 338 338 338 338 338 339 339 338 338 338 338 338 338 339 338 338 336 334 335 335 335 336 336 336 336 336 335 335 335 335 335 336 334 333 333 334 333 331 332 335 334 335 336 334 333 333 332 333 334 334 334 333 333 332 332 333 334 333 332 332 333 332 332 331 331 331 332 331 330 330
337 338 338 338 339 339 339 339 339 339 339 339 339 338 338 338 338 338 338 338 338 338 337 338 338 338 338 338 338 339 338 338 336 336 336 336 336 336 336 337 336 335 335 335 335 336 337 336 335 335 335 334 332 332 332 333 335 336 336 335 333 332 333 333 333 334 335 334 332 332 334 333 332 332 333 332 333 332 331 331 332 332 331 330 331
336 336 336 337 337 338 338 338 339 339 339 339 339 338 338 338 338 338 338 338 337 337 337 337 337 338 338 338 338 338 338 339 338 337 337 336 336 335 336 337 336 334 334 334 334 335 335 336 336 335 336 335 333 332 331 334 336 336 334 334 334 333 332 332 331 332 335 335 333 332 333 333 332 332 333 332 332 331 332 332 332 332 331 331 330
335 335 336 336 336 336 337 337 337 338 338 338 338 338 338 338 338 338 338 337 337 337 337 337 337 338 338 338 338 338 338 338 338 338 337 337 336 335 335 335 335 334 334 334 334 334 334 334 334 334 335 335 334 334 334 336 336 334 333 332 332 332 332 332 332 332 333 333 333 333 333 333 332 332 332 331 331 331 331 332 331 331 332 331 330
335 335 335 335 335 335 335 336 336 336 336 337 337 337 337 337 337 337 337 337 337 336 336 337 337 338 338 338 338 338 338 338 337 337 337 337 336 335 334 334 334 334 334 334 334 334 334 333 334 334 334 334 334 335 336 336 335 333 332 332 332 332 332 333 332 332 332 331 332 333 332 332 332 333 332 332 332 332 332 331 330 331 331 331 331
Wind_Speed
16 17 18 18 19 19 20 22 23 23 23 22 22 21 21 20 20 20 19 17 14 12 12 12 13 14 14 15 12 15 17 15 14 12 12 12 12 11 11 11 13 14 15 16 16 16 16 16 15 15 15 14 14 14 14 15 15 15 15 15 15 16 16 16 17 19 19 20 21 23 24 23 22 20 20 20 18 18 20 20 19 19 19 19 19
19 18 17 18 20 20 21 22 23 23 23 23 22 22 22 21 21 20 18 15 13 12 13 13 13 14 16 16 14 18 18 15 14 13 13 12 12 11 12 13 15 16 16 16 16 16 16 17 16 16 15 15 14 14 14 14 15 15 14 14 15 16 17 18 18 18 18 18 19 21 22 23 21 20 20 20 19 21 21 20 19 19 19 19 19
20 18 18 19 21 21 22 23 23 23 23 23 22 22 23 23 22 20 17 14 13 13 13 13 13 15 17 16 15 19 17 14 13 14 13 11 11 11 13 15 15 16 17 17 16 16 16 16 15 15 14 14 14 13 12 12 13 13 13 13 14 15 17 19 18 17 17 17 18 19 20 21 21 19 19 20 21 21 21 19 19 19 19 19 19
19 19 18 19 21 22 22 23 23 24 24 23 23 23 24 23 21 18 16 14 13 13 13 13 14 17 18 16 17 18 15 14 14 14 12 10 11 12 14 15 15 16 17 17 17 17 16 15 14 14 14 14 14 13 11 10 10 11 11 12 13 14 16 17 17 16 14 15 17 18 16 18 19 18 18 19 20 20 19 19 19 19 18 18 18
20 20 18 19 19 21 22 23 23 24 24 24 24 24 24 23 20 17 16 15 13 13 14 15 17 19 19 17 18 17 14 15 14 12 10 9 11 13 14 15 16 16 17 17 16 16 14 13 13 13 13 14 13 13 12 10 9 10 12 12 12 14 15 16 16 15 12 10 12 13 13 15 16 16 17 17 17 18 17 17 18 17 17 18 18
20 19 19 19 17 20 23 23 24 24 24 23 24 24 24 21 18 17 15 15 14 13 16 18 20 22 21 19 18 17 16 16 13 10 9 9 11 13 14 15 16 16 16 16 15 14 13 12 12 12 12 11 11 11 12 11 10 11 12 12 11 12 14 15 14 12 9 6 6 8 11 13 13 15 16 15 15 15 16 16 16 16 16 17 17
18 19 20 20 17 19 23 23 24 24 24 24 24 24 22 20 18 16 15 15 14 15 18 21 22 22 21 20 18 18 17 15 12 11 11 11 12 14 14 16 16 16 16 15 14 13 12 11 11 11 10 9 10 11 12 11 11 12 12 11 11 11 12 13 12 10 7 5 6 9 11 12 13 15 14 14 14 14 14 15 16 16 16 16 16
17 19 19 19 17 19 23 22 23 24 24 25 23 23 20 18 17 16 15 14 14 18 22 22 22 21 20 21 20 18 16 14 13 12 12 12 13 14 15 16 16 15 15 14 13 12 11 10 10 9 8 8 9 10 11 11 11 11 11 11 11 10 12 13 12 11 10 8 9 10 11 12 13 14 13 13 14 14 14 15 15 15 15 16 16
17 18 19 19 18 19 22 21 22 22 23 23 21 20 19 18 17 17 15 14 16 21 23 21 19 20 23 23 21 18 17 15 14 13 12 13 14 15 15 15 15 14 13 12 12 11 10 9 9 9 7 7 8 10 10 10 11 11 11 12 13 14 15 13 11 9 10 10 11 11 12 13 13 14 13 13 13 13 14 15 15 14 15 16 16
17 18 18 18 19 21 21 21 21 21 20 20 19 19 18 18 18 17 15 15 18 20 20 18 18 22 25 23 21 19 18 16 15 14 13 13 14 14 14 13 13 12 11 10 11 11 10 9 9 9 8 7 8 9 10 10 12 13 14 16 17 18 16 13 11 10 9 10 11 13 15 14 14 14 13 12 12 12 13 14 15 14 14 15 15
18 18 17 18 21 23 22 21 20 20 19 18 19 18 18 18 18 17 15 17 18 18 18 17 19 24 25 23 22 20 19 17 16 16 14 14 15 15 14 13 11 10 8 9 11 10 10 10 11 10 9 8 8 9 10 11 12 16 19 19 18 15 12 9 7 8 11 12 12 12 13 14 14 15 14 13 13 14 14 14 14 14 15 15 15
17 18 18 20 22 23 22 21 21 20 19 19 19 19 18 18 17 17 16 17 18 18 18 18 21 24 25 23 21 20 20 18 16 16 16 15 15 15 13 12 10 8 7 10 11 10 11 11 11 11 10 8 8 8 9 10 13 18 20 18 16 13 11 11 8 8 11 12 13 12 13 14 14 14 13 13 14 13 14 14 14 13 14 14 14
17 19 20 21 22 22 23 21 21 21 20 20 19 19 18 18 17 17 18 18 18 17 16 18 21 23 24 23 21 20 20 18 17 16 16 16 15 14 12 11 9 7 9 11 11 11 11 11 11 10 9 8 8 8 9 10 13 17 18 16 15 15 15 14 11 10 11 12 12 12 12 13 13 13 12 11 12 12 12 12 12 13 13 14 14
19 20 20 21 20 21 22 21 21 21 20 20 19 19 18 18 17 17 19 19 18 18 17 17 18 20 23 23 21 20 19 19 17 15 15 15 14 13 12 10 8 7 11 12 11 11 10 10 11 9 8 8 8 8 9 10 13 17 17 16 14 14 14 12 10 11 11 12 13 12 13 13 12 12 11 11 11 10 11 11 11 11 12 12 13
20 20 21 21 20 20 21 21 21 20 20 19 18 18 18 17 17 18 19 20 20 20 19 18 17 19 22 23 22 19 19 19 17 16 14 15 14 13 12 11 9 9 11 11 12 11 10 10 10 8 8 8 8 9 9 10 13 17 16 14 11 10 11 9 8 11 11 12 13 12 13 12 12 12 11 11 10 9 10 10 10 10 11 11 11
19 21 21 21 21 20 19 19 20 20 19 19 18 18 18 17 18 19 19 20 20 20 20 19 18 18 20 22 22 19 17 17 17 16 14 14 14 13 13 12 10 11 12 11 11 11 10 9 9 8 8 8 9 9 9 10 12 15 13 11 11 11 12 10 8 9 10 11 11 12 12 12 13 11 9 10 9 10 10 9 9 9 10 10 10
18 19 20 21 22 20 19 19 19 19 18 18 18 17 18 18 19 19 19 20 20 21 20 20 20 18 17 19 20 19 16 15 14 14 13 13 13 13 13 12 12 12 12 10 10 11 10 9 8 7 7 8 9 9 9 10 11 12 12 12 13 13 13 11 9 9 10 10 11 12 11 12 13 10 8 10 10 10 10 9 9 9 10 10 10
16 17 19 21 21 20 20 19 19 18 17 17 17 17 18 18 19 19 19 20 20 20 21 20 19 17 16 16 17 17 16 15 13 13 12 13 13 12 12 12 13 13 13 10 9 9 10 9 8 7 6 7 9 10 10 10 11 12 14 15 15 15 14 13 10 9 10 10 11 12 12 12 12 10 9 10 10 11 10 9 9 9 9 9 9
15 16 18 19 20 20 21 21 20 19 18 16 15 16 17 18 19 19 19 19 20 20 20 20 18 16 15 15 15 15 16 15 13 12 12 11 11 11 11 12 13 14 12 10 9 7 7 8 8 8 6 7 8 10 10 11 12 14 16 15 14 13 12 10 8 9 10 10 11 11 11 11 10 9 9 10 10 10 9 8 8 7 7 8 8
15 17 17 18 19 20 21 21 20 19 18 16 15 15 16 17 18 19 19 19 19 20 20 19 18 16 14 14 14 14 13 13 12 10 10 9 9 11 12 13 13 14 12 10 9 7 6 6 8 8 7 7 8 10 11 12 14 16 15 13 12 11 9 7 7 9 9 9 10 10 10 9 9 9 9 9 8 8 8 7 6 6 6 6 7
14 16 16 17 18 19 20 19 20 19 18 17 15 15 15 16 16 16 17 18 18 19 19 17 16 14 13 14 13 13 12 11 10 9 9 9 10 11 12 12 13 14 13 10 9 8 7 6 7 9 9 8 9 10 11 13 15 14 12 11 11 10 7 6 7 8 9 9 10 10 9 8 9 9 8 8 7 7 7 6 6 6 6 6 6
15 15 16 17 17 18 17 18 19 18 18 17 16 15 14 14 14 14 14 15 15 16 16 13 13 12 12 14 13 13 13 11 12 11 9 9 10 11 11 11 12 13 13 11 10 9 8 7 8 9 9 9 10 10 10 12 14 13 11 10 9 6 5 5 6 7 9 9 9 10 10 9 8 7 7 6 6 6 6 5 6 6 6 7 6
15 15 16 17 15 15 14 15 16 17 17 17 16 16 15 15 14 13 13 13 13 13 14 13 12 12 12 14 13 13 13 12 14 12 11 12 10 10 11 11 11 12 14 13 11 10 9 8 8 10 10 10 10 7 8 10 11 12 10 8 5 4 5 5 6 8 8 9 9 10 10 8 7 6 6 6 6 6 6 7 6 6 6 7 6
15 14 14 13 11 10 11 12 13 15 16 14 14 14 14 14 13 13 13 14 14 13 14 13 12 12 12 13 12 12 12 11 13 13 13 13 11 11 11 12 11 11 14 14 12 11 10 9 9 11 11 9 8 7 8 8 6 5 5 4 4 4 4 4 6 8 9 9 9 9 8 7 6 6 6 5 6 6 6 7 7 7 7 7 7
12 10 8 8 8 7 8 9 10 13 12 9 8 10 12 11 11 11 10 13 14 13 14 12 12 13 13 13 11 11 10 9 12 14 13 12 12 13 12 12 11 11 14 14 13 12 11 10 10 13 12 9 9 8 7 8 6 3 2 4 4 3 3 5 6 7 9 8 9 9 7 7 6 5 6 6 6 6 5 6 7 7 7 7 7
9 8 8 8 10 9 8 8 10 12 10 7 6 9 10 9 11 13 12 12 12 14 15 13 13 15 15 15 11 10 10 10 13 15 13 12 12 13 13 13 12 12 14 14 13 13 12 12 12 13 13 11 9 7 7 7 6 5 5 5 4 3 3 4 5 6 9 9 8 9 8 7 6 5 6 6 6 5 5 6 6 6 6 7 7
8 10 10 10 11 12 12 11 12 12 11 9 8 9 10 11 13 14 15 15 14 16 16 13 13 14 16 14 11 10 11 12 15 16 14 14 13 13 13 14 13 13 15 15 13 14 13 13 13 13 13 11 9 8 7 7 6 6 6 5 5 3 3 3 5 6 8 9 8 8 9 7 6 6 6 6 6 5 5 5 6 5 7 7 6
11 11 10 12 11 10 11 11 11 10 9 8 7 9 12 13 14 14 14 14 15 15 12 12 13 14 14 13 12 12 11 12 16 17 16 15 14 13 13 13 13 13 15 15 14 14 14 13 13 13 12 11 9 9 8 7 6 6 7 6 5 4 3 3 4 6 7 9 8 8 9 9 6 6 6 5 5 5 5 5 6 5 6 6 6
12 11 10 11 10 9 8 8 8 8 8 8 8 10 13 14 13 14 13 12 12 12 11 11 13 13 13 12 13 13 11 10 14 17 16 15 14 12 12 12 12 12 14 14 14 15 14 13 13 13 12 11 11 9 8 7 6 6 6 6 5 4 4 3 4 5 6 9 9 8 9 10 8 7 6 5 5 6 6 5 5 5 5 6 6
10 11 10 8 9 9 9 9 9 9 10 11 11 11 12 12 11 12 12 10 10 11 11 11 12 11 12 14 13 13 11 10 12 13 13 14 12 10 10 11 11 11 12 13 14 14 14 14 13 13 12 11 11 10 8 8 8 7 6 7 6 5 5 4 5 5 7 9 9 8 8 10 9 8 8 6 6 7 6 4 4 5 6 6 6
7 8 9 9 9 10 11 12 13 13 13 13 13 11 11 12 11 10 9 8 11 12 9 9 10 9 11 13 12 13 14 13 12 10 9 9 8 9 9 9 10 9 10 11 12 13 14 13 12 13 14 13 11 10 10 9 9 8 7 7 7 6 5 5 5 5 7 8 8 8 7 9 10 10 9 8 7 6 4 4 5 6 6 6 6
7 6 7 8 9 8 9 9 10 10 11 11 11 11 11 11 10 9 8 8 11 11 9 9 10 8 9 10 12 15 16 15 13 9 9 9 9 10 9 7 7 8 9 10 11 12 13 13 12 14 15 13 12 10 10 10 9 8 8 8 7 6 6 5 5 6 7 8 8 8 7 8 10 11 10 9 8 5 4 5 6 6 5 5 5
6 6 7 7 7 7 7 6 6 7 9 9 9 10 10 10 9 9 9 9 8 9 9 9 9 9 8 9 10 14 15 15 14 11 9 10 11 11 12 11 9 10 11 10 9 10 12 13 13 14 15 14 13 11 10 10 10 9 9 8 7 6 6 6 6 6 7 8 8 7 8 8 9 10 10 9 8 7 6 6 6 6 6 6 6
5 5 5 5 4 5 6 6 7 7 8 8 8 8 8 8 7 7 7 7 7 7 8 8 8 8 7 7 8 10 14 15 15 14 11 11 11 10 12 14 13 12 11 10 10 10 12 14 14 14 16 15 13 12 11 11 10 10 9 8 8 7 7 7 6 7 7 7 7 8 9 10 10 10 10 9 9 9 7 6 5 6 6 6 6
5 4 4 4 3 2 3 4 5 6 7 7 7 6 5 5 6 7 7 7 7 7 7 7 8 8 8 9 8 7 11 13 13 15 14 13 12 10 11 13 13 13 14 14 14 13 12 13 15 15 15 15 13 13 13 12 11 11 9 8 8 8 7 7 7 8 8 7 7 7 8 10 11 11 10 9 9 9 8 7 7 7 6 6 7
5 4 3 3 2 1 0 2 3 4 6 6 6 6 5 4 5 7 7 7 7 8 8 9 9 9 10 11 10 9 10 11 10 13 15 15 14 12 12 14 15 15 16 17 18 18 14 13 15 16 16 17 15 14 14 13 12 11 10 9 9 8 8 7 8 8 8 8 7 7 7 9 10 10 10 10 9 8 8 8 9 9 8 7 7
5 4 3 2 1 1 1 2 3 3 4 5 6 5 5 4 4 6 7 7 7 10 11 10 9 8 9 10 10 9 8 8 8 11 15 16 15 14 13 15 17 17 18 17 18 19 17 14 15 16 17 17 16 16 16 14 13 12 12 11 10 9 9 8 8 8 8 8 7 8 8 8 9 8 9 11 10 9 10 10 9 10 11 9 7
6 4 4 2 1 1 0 2 3 3 3 4 4 4 4 4 4 5 7 7 8 10 11 10 9 8 9 9 9 8 6 7 9 11 13 16 17 16 15 16 18 19 19 18 17 18 18 17 17 17 18 19 18 19 17 14 14 13 12 11 10 9 9 8 8 8 8 8 8 8 8 8 8 8 9 11 12 11 11 12 12 12 12 11 9
6 4 4 3 2 2 1 1 3 3 2 3 3 4 4 5 5 5 6 7 8 8 8 10 10 8 8 9 9 9 7 7 8 10 12 15 16 16 16 15 16 19 20 20 19 18 19 20 19 19 21 21 20 19 16 15 14 12 11 10 10 9 8 8 9 9 8 8 8 8 8 8 8 9 10 11 13 12 12 13 12 11 11 11 11
4 4 4 3 2 3 2 1 1 2 1 2 2 4 5 6 7 6 7 7 7 7 6 8 9 8 8 8 9 9 8 7 8 10 11 13 14 16 17 17 16 19 20 21 21 21 20 21 20 20 20 20 18 15 15 16 13 10 9 9 8 8 9 9 9 9 8 8 8 8 9 8 8 10 10 10 12 13 14 13 12 11 11 11 10
4 2 3 2 2 2 2 2 1 1 1 2 2 3 4 5 7 7 8 8 6 6 6 7 8 7 7 8 8 8 9 7 7 9 11 13 14 15 18 18 17 19 21 21 21 21 21 20 20 21 19 18 18 15 14 15 14 11 9 8 8 7 8 9 10 9 9 9 9 10 10 9 9 10 10 9 9 11 12 12 12 12 11 11 10
4 2 2 3 2 2 2 2 1 1 1 2 3 4 5 5 6 7 7 7 6 5 6 6 6 6 6 7 8 7 7 7 8 9 11 13 14 15 18 18 18 19 21 22 20 20 20 20 20 20 19 19 21 19 15 14 13 12 10 8 6 6 7 9 11 11 12 12 11 11 10 9 9 9 9 9 9 9 9 9 11 11 9 10 11
5 4 3 4 3 3 2 1 0 1 2 2 3 4 4 4 6 7 7 7 6 6 6 6 6 6 7 8 8 8 8 9 10 10 11 13 15 16 16 17 17 18 20 21 20 19 19 20 20 20 21 21 21 21 18 17 14 11 10 7 5 5 5 8 12 13 14 15 13 12 11 10 10 10 9 8 9 10 9 9 10 9 8 9 10
5 5 4 4 3 3 2 0 1 2 2 2 2 4 4 4 6 7 7 8 8 8 8 8 8 8 9 10 11 12 12 12 13 12 12 13 15 15 15 15 17 19 20 20 19 19 19 21 23 22 21 21 20 19 19 21 16 10 8 5 4 5 4 7 11 11 12 14 13 11 11 10 10 11 12 9 9 9 9 9 8 7 8 9 10
6 5 5 4 2 2 2 1 1 1 1 2 2 3 4 4 5 6 7 8 9 10 10 10 9 9 10 11 12 14 14 14 13 12 12 13 15 16 15 16 18 19 20 19 20 21 20 21 25 24 22 22 21 20 20 21 17 10 9 5 3 4 4 6 8 8 13 14 12 12 11 10 10 12 12 10 9 10 9 9 8 7 7 8 10
7 5 5 3 2 2 1 1 1 1 2 2 3 3 4 5 6 6 7 8 9 9 9 10 10 10 10 10 11 12 14 15 15 15 15 15 17 17 16 17 18 19 19 19 19 21 21 22 24 24 24 24 21 18 16 18 14 10 11 8 4 2 1 4 5 5 11 12 13 15 13 12 13 14 13 11 11 10 8 9 9 8 8 7 9
7 5 4 3 2 2 1 1 1 2 2 3 3 4 5 5 6 7 9 10 10 10 9 9 10 10 11 10 11 11 13 14 16 17 17 17 18 19 17 18 20 20 21 21 21 21 21 22 23 23 23 23 21 17 13 14 12 9 9 10 8 4 2 4 4 3 6 8 12 15 13 14 15 14 13 13 12 11 10 9 8 8 9 8 8
6 5 5 4 3 3 3 3 2 2 3 3 3 4 5 6 7 9 10 11 12 12 12 11 11 11 12 11 12 12 12 14 15 16 16 18 20 20 18 17 21 22 22 23 24 22 20 19 21 22 20 20 23 22 16 13 12 10 10 9 10 8 6 8 8 5 3 4 8 11 12 15 15 13 12 12 13 13 12 10 9 8 8 8 9
5 5 4 3 2 2 3 3 4 4 3 3 4 5 6 7 9 10 11 12 13 13 13 12 12 12 13 13 13 13 13 13 14 15 16 18 20 21 20 19 22 23 23 24 25 24 23 22 23 23 21 20 23 22 18 15 13 13 14 13 11 11 9 11 13 11 6 4 6 7 10 12 13 14 13 12 13 14 13 11 10 9 8 8 9
5 5 5 4 3 2 2 3 4 5 5 5 5 6 6 7 9 11 11 12 13 13 14 13 13 13 14 14 14 14 14 14 15 16 16 17 19 21 22 22 23 23 23 25 24 24 25 26 27 26 23 22 23 20 17 15 14 15 17 16 14 12 10 9 12 13 10 8 7 7 12 12 10 12 13 13 13 13 13 12 11 10 9 9 9
6 6 5 4 3 2 2 3 3 4 5 6 6 7 8 8 10 11 12 13 14 14 15 15 14 14 14 15 15 15 14 15 15 16 16 17 19 20 21 23 24 23 24 24 25 25 25 26 26 25 24 24 23 20 16 15 15 17 17 17 16 14 13 10 11 15 12 9 8 7 12 15 12 12 13 13 12 12 12 13 13 12 11 10 9
Wind_Direction
132 131 137 147 150 148 152 156 160 160 162 160 158 157 155 152 146 144 140 136 132 128 126 122 118 118 115 105 103 116 120 114 105 100 102 106 107 103 100 100 102 107 109 108 107 106 106 104 101 97 95 96 96 95 96 100 99 96 96 96 95 93 90 88 85 83 82 81 79 77 77 75 71 70 71 73 75 75 74 71 70 69 67 68 68
129 136 136 142 152 149 153 155 157 158 160 158 157 157 153 150 147 146 143 139 134 129 126 120 118 118 114 106 109 119 116 111 108 103 102 104 104 100 101 104 105 109 109 107 107 106 106 104 101 98 97 99 98 97 98 99 100 100 101 102 101 98 93 86 81 78 76 77 77 77 76 74 71 69 71 74 73 74 75 73 72 71 69 69 69
130 138 131 139 152 149 154 154 155 157 157 157 156 154 151 150 150 150 146 141 133 129 124 121 121 119 115 112 119 122 115 114 114 104 102 104 104 102 105 106 107 109 108 108 107 105 104 103 102 103 103 101 99 97 98 100 103 107 107 107 105 103 99 90 83 79 76 76 74 74 73 71 69 68 69 70 71 71 73 72 72 72 70 70 69
135 134 130 139 148 150 154 153 155 155 154 155 154 152 151 152 153 151 147 142 136 130 124 123 124 122 118 117 125 123 117 120 115 109 113 113 108 107 108 108 109 109 108 108 107 105 103 102 104 107 104 100 95 89 88 96 109 113 111 110 108 106 100 92 86 82 81 84 82 78 75 72 67 65 67 66 68 69 70 71 72 72 71 70 69
136 133 135 136 141 150 152 153 154 154 154 153 154 153 153 154 154 151 149 144 138 130 126 126 124 122 119 120 125 123 120 120 114 115 126 123 112 111 111 111 111 110 108 107 106 104 101 101 104 105 104 100 91 84 80 86 106 114 115 116 113 110 102 91 84 80 81 90 93 85 78 78 70 63 65 66 67 68 69 70 70 71 71 71 70
134 135 140 137 139 148 151 154 153 156 156 154 154 154 155 155 154 153 151 145 139 132 130 130 126 123 121 122 125 123 121 119 118 123 131 130 118 114 115 114 112 110 109 106 104 101 98 98 101 102 102 99 90 84 80 82 101 116 120 122 119 116 108 98 91 88 89 93 94 85 79 82 78 68 65 67 68 69 70 70 70 69 69 70 69
133 138 142 140 145 152 154 154 154 157 156 156 155 155 157 155 155 154 150 145 140 135 133 132 127 123 123 126 127 125 124 123 126 128 128 127 121 118 118 116 114 112 110 107 105 103 99 96 97 99 98 97 91 86 81 80 98 120 126 126 123 119 114 105 93 84 70 63 82 84 83 85 85 77 69 69 68 67 71 72 72 69 69 68 68
136 143 144 141 147 156 155 155 156 157 158 159 158 158 157 154 155 153 149 146 141 137 136 134 129 127 130 132 131 130 130 131 132 129 125 122 122 121 120 119 117 115 113 110 109 107 100 94 92 93 92 93 90 85 83 82 93 115 130 130 125 118 116 109 94 75 60 62 80 82 86 90 88 83 75 73 72 69 69 70 70 69 69 68 67
141 143 141 140 148 156 156 158 158 157 159 159 158 158 154 153 152 150 148 144 140 140 141 137 133 136 138 137 136 136 137 138 137 133 129 124 123 121 121 122 119 116 114 112 110 108 100 92 90 92 93 91 86 84 84 87 90 102 122 127 118 110 108 103 85 63 61 71 75 73 82 91 88 84 78 75 76 72 70 68 67 66 67 65 65
140 142 141 141 149 157 159 161 159 157 156 154 155 154 152 152 150 151 148 144 142 142 145 140 140 144 142 141 140 142 143 145 143 140 137 131 127 123 120 118 116 115 111 110 111 109 101 94 92 93 97 89 81 84 84 87 91 98 110 113 110 107 105 99 75 55 66 77 75 70 73 82 84 83 82 79 76 71 68 67 66 66 67 66 67
141 143 142 143 152 160 161 161 160 159 156 154 154 154 153 152 152 153 151 149 144 142 145 143 148 149 146 145 145 147 148 150 151 148 144 137 132 127 122 117 114 113 110 114 116 108 101 99 92 88 88 81 77 84 86 86 95 104 108 110 109 107 104 94 69 68 82 83 84 83 77 81 83 83 83 80 76 72 69 68 67 67 67 67 68
143 140 140 148 157 162 163 163 162 162 160 158 157 157 155 154 155 154 152 147 142 141 143 146 150 151 150 149 150 153 152 153 156 154 149 145 140 134 132 128 124 118 121 122 113 104 103 103 93 83 77 76 82 86 88 89 101 110 112 112 107 99 87 71 64 80 85 83 85 85 82 81 83 85 83 79 78 73 71 71 71 69 68 67 66
142 136 139 149 156 162 166 166 164 164 162 162 161 161 159 158 157 154 150 144 141 142 145 147 150 153 154 153 156 157 155 158 160 159 155 153 150 144 142 142 142 132 129 122 108 102 106 105 95 83 74 76 81 86 94 95 105 115 114 109 99 88 76 69 77 86 80 84 86 83 81 81 85 89 88 83 80 75 74 73 72 71 71 69 66
139 134 138 144 150 161 167 166 166 166 164 165 164 164 162 160 159 155 150 147 148 149 151 149 149 154 157 160 161 159 159 161 164 165 161 160 159 155 152 154 158 142 131 121 108 105 106 106 98 88 79 78 82 90 99 101 110 119 115 108 102 94 81 73 85 90 85 86 86 87 85 85 90 91 89 85 84 82 79 76 73 71 71 70 67
137 137 140 142 147 157 163 165 166 165 166 166 166 166 163 162 160 155 154 154 155 155 154 151 150 152 159 165 165 164 164 164 169 172 171 168 167 166 164 165 161 144 133 120 110 108 105 107 103 96 87 84 87 93 101 105 115 121 119 113 106 97 86 78 87 90 90 90 88 89 88 91 93 90 89 88 91 89 83 79 73 71 71 70 69
137 140 142 144 147 151 158 162 165 165 166 167 167 168 166 166 162 158 160 159 160 159 156 155 156 155 158 166 170 170 166 166 170 173 176 173 171 171 171 168 157 147 138 122 113 110 107 109 109 102 92 89 91 94 102 106 119 125 121 112 100 92 89 88 93 92 91 92 92 93 92 96 93 89 91 87 86 83 81 79 72 70 71 72 72
141 143 145 148 149 151 154 158 164 165 166 169 169 169 169 169 165 163 163 163 165 164 160 160 161 161 159 165 172 173 169 168 170 172 177 177 176 174 171 167 157 151 143 127 116 113 114 116 114 109 97 92 92 95 103 107 119 125 118 109 100 94 91 87 88 91 90 90 94 94 94 98 93 89 88 86 84 82 82 80 75 73 73 75 75
146 148 150 151 152 154 154 157 161 162 164 167 169 171 170 168 168 168 167 167 169 167 164 164 166 166 163 163 167 171 172 173 174 175 177 179 179 176 172 168 162 155 147 134 124 119 119 121 122 117 105 95 93 97 103 109 117 119 115 107 98 94 89 86 87 89 88 89 93 94 96 101 101 97 90 88 88 86 86 85 82 79 77 78 75
150 152 154 156 157 156 154 157 159 161 163 163 167 172 172 170 173 174 172 171 172 170 166 167 170 168 165 163 163 166 170 172 173 172 176 181 177 178 176 171 167 158 151 141 133 131 125 125 129 126 115 103 97 100 105 111 116 117 110 101 95 89 82 81 87 90 88 90 92 95 105 111 111 106 96 92 92 92 92 87 83 81 77 73 69
156 157 159 160 161 160 157 158 160 163 163 163 165 170 175 173 176 178 175 174 174 173 170 172 174 170 166 163 162 157 162 169 169 174 186 187 176 182 184 177 173 164 158 153 145 149 147 133 134 134 122 111 102 103 106 110 116 113 100 89 81 66 59 70 80 84 85 88 91 99 116 119 106 98 95 91 90 92 90 82 74 73 68 65 65
162 163 166 165 163 164 159 159 162 164 163 162 162 168 177 173 175 179 178 177 175 175 174 175 174 172 170 164 157 152 162 167 164 180 192 187 185 188 191 186 179 170 166 165 160 160 164 153 147 143 128 119 110 105 105 110 112 104 90 80 70 57 59 78 82 86 91 93 95 101 105 102 97 94 93 90 87 86 85 82 73 69 66 64 66
170 170 173 170 167 168 163 160 162 165 164 160 162 166 172 169 170 174 178 180 176 177 175 175 173 172 175 170 166 167 172 170 169 182 179 174 188 192 193 192 184 175 171 172 173 169 170 170 161 153 140 125 114 109 107 109 106 94 86 77 65 66 82 82 85 90 94 94 100 114 111 103 105 100 96 94 90 84 83 82 71 71 74 72 70
176 178 177 173 169 169 164 161 161 167 164 159 162 162 165 168 168 169 174 180 177 178 177 177 178 176 180 181 183 183 177 176 177 178 173 172 185 196 196 196 194 182 176 178 181 176 174 178 172 162 150 131 124 133 131 122 108 88 75 68 69 105 104 94 98 93 95 96 107 126 123 112 112 107 103 96 91 83 82 83 76 75 81 83 77
180 181 176 170 167 162 158 164 163 166 163 158 160 158 165 167 165 170 175 182 179 182 184 181 184 182 187 196 198 190 181 180 177 171 172 177 185 198 201 198 199 190 181 180 183 181 180 185 181 171 161 152 161 173 161 150 138 91 60 77 109 127 115 105 103 101 102 101 108 119 116 111 112 109 104 96 95 91 87 86 80 78 83 90 85
178 169 152 152 154 149 156 175 170 167 161 155 163 159 165 166 164 175 186 192 187 188 191 187 189 187 194 208 208 198 192 181 176 175 174 177 182 184 187 189 190 192 184 179 185 186 185 191 188 179 180 192 199 193 173 167 173 177 138 126 134 139 133 119 114 113 108 108 118 125 130 122 115 109 102 98 99 95 91 89 85 83 85 93 89
165 138 132 152 154 150 158 178 179 176 163 153 185 172 166 171 172 184 193 196 196 197 197 194 195 196 201 209 208 208 211 197 184 186 183 182 184 179 179 180 180 186 184 182 188 189 189 192 190 189 199 214 209 195 185 177 178 169 145 138 147 155 149 130 127 119 110 116 131 142 144 128 120 118 108 104 102 98 93 90 91 84 80 92 94
134 121 144 162 162 166 164 170 181 183 170 164 183 176 175 183 183 192 198 197 200 203 203 201 206 208 209 211 207 206 212 210 199 196 194 190 190 188 183 179 178 182 183 188 192 189 195 196 193 199 208 216 206 193 189 184 185 167 148 153 161 163 158 142 134 125 119 125 141 155 149 134 131 128 115 109 105 104 103 96 96 84 77 92 99
111 117 153 159 163 173 161 165 182 180 175 180 178 174 189 195 191 197 203 205 206 210 214 213 218 218 213 212 214 211 209 216 213 204 195 192 195 196 189 182 181 183 184 192 196 191 198 201 197 205 212 217 208 196 193 188 188 171 155 158 162 161 157 145 131 129 131 135 145 157 152 144 140 132 123 119 113 111 115 107 97 91 89 102 106
121 134 154 153 158 162 151 160 173 168 177 193 188 187 201 203 197 198 201 208 215 220 223 217 217 217 212 210 217 221 221 228 227 216 203 198 198 197 194 189 186 188 188 193 199 194 199 202 200 207 214 216 209 198 195 191 188 181 167 160 157 158 158 151 141 142 142 140 145 155 155 150 149 144 134 129 131 127 122 108 93 95 101 107 107
129 141 140 141 152 155 157 164 170 171 182 194 195 197 208 211 207 204 202 206 220 224 223 221 215 213 214 212 213 221 228 236 240 238 228 214 199 195 201 195 192 194 193 196 201 197 199 204 200 204 209 212 208 198 195 198 197 189 175 166 163 164 167 163 157 150 141 140 145 152 159 162 163 159 152 144 137 131 122 111 106 110 116 116 108
121 137 138 145 155 160 168 174 181 181 183 190 191 198 210 217 216 210 210 214 225 224 219 225 220 217 222 219 217 221 227 229 234 243 238 223 201 204 208 198 196 197 200 202 202 200 200 203 201 202 205 206 207 201 199 208 205 192 181 178 175 173 169 166 168 161 152 150 150 149 162 175 176 170 162 150 138 135 134 138 131 120 123 125 117
116 124 130 139 151 165 177 182 186 182 185 190 188 198 207 216 221 217 225 229 229 225 222 228 227 227 230 228 226 225 228 227 229 231 218 208 204 214 215 207 203 197 206 214 208 202 202 203 202 206 206 203 207 205 203 211 209 195 189 185 180 180 172 171 177 170 163 159 156 156 161 173 178 176 166 152 146 151 152 152 144 129 128 127 123
114 121 129 135 147 164 181 190 192 197 202 201 199 206 210 216 222 221 231 234 231 235 240 243 244 246 238 232 225 219 224 228 229 228 215 205 204 215 215 209 207 201 208 225 223 206 205 206 203 208 210 205 207 205 204 212 210 200 196 186 183 186 177 179 184 177 171 166 166 170 168 169 176 176 169 163 163 164 159 155 150 140 135 128 128
111 123 136 139 150 164 183 193 195 207 211 212 216 218 219 225 232 235 240 242 242 252 261 262 265 268 255 242 232 217 221 225 226 225 221 212 205 215 218 208 203 203 202 215 230 225 215 211 205 210 213 208 203 200 204 211 209 203 197 187 188 188 181 185 184 181 180 175 174 177 175 173 174 174 171 175 179 176 172 166 154 151 147 136 133
112 120 130 130 135 155 192 203 201 212 216 222 231 230 232 242 251 254 254 253 255 266 278 281 278 278 269 255 245 231 226 226 228 230 227 220 208 206 215 211 204 205 202 202 215 226 230 222 211 211 217 215 206 200 204 207 208 204 194 191 194 186 184 190 185 186 187 180 181 184 183 181 178 172 168 172 178 184 185 173 160 159 153 143 138
119 121 124 124 125 134 271 262 241 239 237 243 249 246 245 255 263 268 269 267 275 282 281 282 281 278 277 270 258 246 238 232 231 235 232 225 218 210 210 213 211 209 208 206 209 215 225 232 224 216 218 220 211 205 205 204 206 201 192 195 195 188 189 191 189 192 190 184 186 188 188 189 184 173 168 165 165 181 185 172 169 165 153 145 144
128 130 131 127 131 178 287 290 273 264 258 260 264 261 258 262 270 277 274 271 285 286 275 274 278 276 276 277 269 256 250 243 234 240 239 227 222 221 218 218 218 215 213 213 211 213 215 227 237 230 224 223 216 211 206 201 205 200 196 200 193 193 195 190 193 194 193 193 190 189 192 193 187 176 171 162 155 168 169 159 163 161 152 150 149
136 139 138 136 137 156 202 289 286 283 278 276 277 281 283 280 275 267 266 269 276 279 275 275 280 281 277 276 271 262 258 253 238 239 242 233 225 225 225 224 225 221 218 217 213 213 212 219 236 239 235 232 221 214 206 199 205 201 197 202 195 192 194 187 192 199 198 200 193 189 193 194 189 179 171 165 158 159 160 153 147 147 149 151 152
136 140 142 146 145 139 139 280 297 296 298 298 292 294 296 291 280 260 258 261 261 270 279 282 284 280 273 271 268 261 254 255 249 239 238 238 230 225 227 226 226 223 220 220 216 213 211 212 223 231 238 239 225 214 205 198 204 203 197 200 193 188 190 182 189 207 208 201 196 194 195 195 194 184 176 173 165 161 165 161 151 150 151 150 153
126 135 139 141 141 140 146 140 313 308 316 325 316 298 292 287 280 267 259 254 254 266 272 277 279 266 257 263 266 262 254 248 249 243 236 237 232 228 230 227 225 224 221 219 217 215 213 213 218 222 234 245 237 220 206 201 198 192 189 189 187 186 186 184 194 210 211 202 198 197 197 198 196 188 183 179 171 173 178 171 164 166 159 151 152
121 134 137 136 136 137 139 115 58 327 327 323 301 264 264 274 274 270 265 258 256 267 265 262 259 250 251 259 261 262 259 248 245 246 240 238 235 232 234 232 227 224 223 221 218 217 215 216 219 218 224 241 247 232 206 201 197 184 181 180 182 190 187 191 201 208 213 208 202 203 201 197 195 189 188 183 173 181 187 178 176 176 165 160 156
123 133 135 131 130 129 126 110 85 308 287 277 268 251 256 267 269 280 288 278 265 267 271 263 256 251 253 258 257 258 259 248 241 246 245 242 239 235 235 235 232 227 226 224 221 217 211 212 217 217 217 226 239 236 207 199 204 190 182 178 176 197 203 205 210 214 217 210 204 208 200 191 194 189 187 189 182 183 181 175 176 171 166 173 164
124 132 130 128 128 122 118 98 122 259 242 238 261 266 271 273 273 288 301 294 281 277 275 261 254 249 246 251 248 239 240 240 239 240 243 247 245 241 237 234 232 228 225 223 221 216 209 208 212 212 213 218 232 237 214 201 208 195 183 186 178 192 211 220 221 223 221 213 212 214 201 193 200 193 186 189 190 186 181 177 170 160 168 181 170
125 125 122 124 124 119 124 110 198 242 249 241 269 283 281 277 277 280 283 285 283 282 277 260 247 241 241 242 236 230 229 235 239 233 232 244 247 242 238 233 232 229 226 224 220 217 211 209 212 210 211 218 229 235 219 206 208 200 186 190 180 190 217 215 212 221 224 221 224 218 203 199 203 201 196 193 191 188 186 180 166 164 176 177 172
110 102 101 114 121 117 130 164 211 251 275 256 257 276 277 270 271 270 266 264 262 264 265 257 245 239 242 244 243 239 234 236 238 226 222 236 244 242 237 236 237 235 230 228 223 221 216 211 212 211 208 215 224 227 218 209 210 207 197 188 160 194 235 203 189 214 224 224 227 219 209 206 209 210 204 197 195 189 187 182 173 176 175 166 171
93 89 90 93 93 89 119 173 222 232 253 257 253 263 268 268 271 271 266 260 254 253 256 256 252 246 244 244 246 243 238 240 236 225 220 226 236 239 236 235 239 239 234 231 229 225 219 211 209 208 207 210 218 223 213 206 208 207 205 207 186 167 259 194 171 202 213 217 224 219 213 213 214 215 208 199 195 185 187 196 187 175 169 166 168
86 90 86 74 52 36 1 305 260 237 239 243 241 252 266 272 272 272 272 273 272 270 267 266 264 259 254 248 244 240 240 243 237 231 228 225 229 233 233 235 236 237 235 234 234 228 220 213 207 206 206 208 214 217 210 202 202 201 203 210 212 221 269 214 205 204 196 209 223 219 215 217 216 215 212 204 197 186 187 197 189 174 171 167 157
82 79 73 59 35 11 343 325 300 277 257 243 238 249 262 265 264 264 266 272 276 278 278 272 266 263 261 254 247 242 240 241 239 234 231 229 229 229 230 232 235 236 234 234 235 231 221 211 206 204 202 206 212 213 210 205 200 195 194 199 211 227 241 232 232 240 214 193 208 216 220 217 214 215 212 201 196 192 187 184 181 180 176 165 158
80 69 67 59 29 356 335 323 307 302 296 283 275 268 265 262 264 267 268 272 274 278 280 273 267 263 260 254 249 245 240 238 238 233 233 234 234 233 230 230 235 236 234 235 237 234 225 216 212 207 200 203 209 210 210 206 199 197 196 196 206 223 240 250 247 242 236 213 197 199 204 204 208 212 205 195 195 194 190 185 181 181 176 170 169
78 68 65 59 43 12 328 318 314 313 311 310 306 298 291 279 276 278 278 279 278 278 279 275 270 265 261 256 250 247 241 238 237 232 232 235 236 237 233 232 237 238 236 237 235 232 227 221 219 215 209 208 207 207 209 203 199 202 200 195 201 215 230 251 251 237 232 240 235 196 183 188 196 200 196 192 192 190 190 192 186 183 180 177 174
71 67 61 54 46 27 345 328 329 325 316 312 310 306 302 293 288 288 286 285 282 280 279 276 272 266 262 260 254 249 243 239 238 235 232 233 234 236 233 233 238 238 236 235 232 228 225 222 222 221 219 217 211 210 209 202 202 206 199 192 196 206 215 221 227 230 225 220 227 200 183 192 188 183 187 187 185 184 188 191 189 186 180 177 176